Date,Time,Air Temperature,Dewpoint,Windchill,Heat Index,RH,3m Max Wind Speed,3m Mean Wind Speed,3m Wind Direction,Rain,Solar Radiation
,,F,F,F,F,%,MPH,MPH,deg,in,MJ/m^2
2024-04-15,23:55,59.3,9,59.3,59.3,13.4,5.1,3.5,128.2,0.0,-0.00029956
2024-04-16,00:00,58.8,8.8,58.8,58.8,13.5,4.1,2.6,141.7,0.0,-0.00029941
2024-04-16,00:05,58.4,7.4,58.4,58.4,12.8,4.6,1.5,38.5,0.0,-0.00034027
2024-04-16,00:10,59.8,7.3,59.8,59.8,12.2,8.3,5,348.6,0.0,-0.0002741
2024-04-16,00:15,60.1,7.9,60.1,60.1,12.3,9.3,5.7,333.5,0.0,-0.00032259
2024-04-16,00:20,58.9,8.2,58.9,58.9,13.1,6.5,4.2,296,0.0,-0.00032252
2024-04-16,00:25,59.1,8.3,59.1,59.1,13.1,6.2,3.8,294.5,0.0,-0.00029341
2024-04-16,00:30,58.7,8.5,58.7,58.7,13.4,5.1,2.1,313.2,0.0,-0.00034079
2024-04-16,00:35,58.4,8.5,58.4,58.4,13.5,7,3.2,290,0.0,-0.00028697
2024-04-16,00:40,58.2,8.7,58.2,58.2,13.7,3.5,1.5,289.2,0.0,-0.00030326
2024-04-16,00:45,58.1,9,58.1,58.1,13.9,4.8,2,281.9,0.0,-0.00028162
2024-04-16,00:50,57.5,9.6,57.5,57.5,14.6,3.1,1.9,243.9,0.0,-0.00025841
2024-04-16,00:55,56.7,9.4,56.7,56.7,14.9,3.6,2.1,225.6,0.0,-0.00024433
2024-04-16,01:00,56,9.8,56.0,56,15.6,2,1.4,200.9,0.0,-0.00025347
2024-04-16,01:05,55.5,10.1,55.5,55.5,16.1,2.4,1.4,178.9,0.0,-0.00023244
2024-04-16,01:10,55,10.5,55.0,55,16.7,1.4,0.5,179.8,0.0,-0.00027212
2024-04-16,01:15,54.3,9.5,54.3,54.3,16.4,0.8,0.1,334.6,0.0,-0.00027964
2024-04-16,01:20,54.6,9.3,54.6,54.6,16.0,3.1,1.8,298.2,0.0,-0.0002328
2024-04-16,01:25,54.6,9.6,54.6,54.6,16.2,3.7,2.6,284.5,0.0,-0.00021371
2024-04-16,01:30,54.9,9.3,54.9,54.9,15.9,5.4,2.8,291.2,0.0,-0.00022047
2024-04-16,01:35,55.3,8.9,55.3,55.3,15.4,5.9,3.3,288,0.0,-0.00022124
2024-04-16,01:40,56,9,56.0,56,15.0,6.8,3.7,291.2,0.0,-0.00023272
2024-04-16,01:45,56.2,9.1,56.2,56.2,15.0,6.1,3.3,289.3,0.0,-0.00022528
2024-04-16,01:50,55.8,9.5,55.8,55.8,15.5,3.2,1,324.8,0.0,-0.00030057
2024-04-16,01:55,55.4,9.5,55.4,55.4,15.8,2.5,1.1,18.6,0.0,-0.00032794
2024-04-16,02:00,55.3,9.3,55.3,55.3,15.6,1.6,0.8,107.8,0.0,-0.00027846
2024-04-16,02:05,54.6,10.5,54.6,54.6,16.9,2.8,1.5,182.9,0.0,-0.0002447
2024-04-16,02:10,53.5,11.2,53.5,53.5,18.2,3.5,2.6,225.9,0.0,-0.00021293
2024-04-16,02:15,53.8,12.3,53.8,53.8,18.8,3.9,2.6,274.4,0.0,-0.00021393
2024-04-16,02:20,53.6,10.8,53.6,53.6,17.8,4.4,3.2,272,0.0,-0.00021208
2024-04-16,02:25,53.6,10.7,53.6,53.6,17.7,5.9,2.8,271,0.0,-0.00023625
2024-04-16,02:30,53.6,10.9,53.6,53.6,17.9,3.7,1.9,265.3,0.0,-0.00022961
2024-04-16,02:35,53.2,10.7,53.2,53.2,18.0,1.2,0.3,248.3,0.0,-0.00026936
2024-04-16,02:40,52.9,10.1,52.9,52.9,17.7,1.9,0.3,248.1,0.0,-0.00024429
2024-04-16,02:45,52.9,10.6,52.9,52.9,18.1,2.7,1.6,245.9,0.0,-0.00019236
2024-04-16,02:50,52,11.6,52.0,52,19.5,1.4,1,265.4,0.0,-0.00024101
2024-04-16,02:55,51.3,11,51.3,51.3,19.5,1.5,1.1,312.2,0.0,-0.00026794
2024-04-16,03:00,50.7,9.8,50.7,50.7,19.0,2.7,1.6,330.9,0.0,-0.00026587
2024-04-16,03:05,50.6,9.7,50.6,50.6,18.9,2.3,1.2,316.6,0.0,-0.00025925
2024-04-16,03:10,51,10.1,51.0,51,19.0,1.7,0.9,319.5,0.0,-0.00023296
2024-04-16,03:15,52.2,11.2,52.2,52.2,19.1,1.9,1.3,275.4,0.0,-0.00018292
2024-04-16,03:20,50.7,13.1,50.7,50.7,21.9,3.9,2.7,237,0.0,-0.00018733
2024-04-16,03:25,49.8,13,49.8,49.8,22.6,1.8,0.4,215.3,0.0,-0.0002821
2024-04-16,03:30,49.2,12.7,49.2,49.2,22.8,1.3,0.3,124.9,0.0,-0.00026989
2024-04-16,03:35,49.6,10.8,49.6,49.6,20.6,2.6,1.8,93.5,0.0,-0.0002663
2024-04-16,03:40,50,10.7,50.0,50,20.3,3,1.7,64.5,0.0,-0.00027529
2024-04-16,03:45,48.9,13.3,48.9,48.9,23.7,2.5,2.1,247,0.0,-0.00020714
2024-04-16,03:50,48,14.1,48.0,48,25.3,2,1.4,241.6,0.0,-0.00023719
2024-04-16,03:55,47.6,13.4,47.6,47.6,24.9,1.4,1,202.8,0.0,-0.00021069
2024-04-16,04:00,47.8,12.6,47.8,47.8,23.9,2.1,1.5,107.8,0.0,-0.00024881
2024-04-16,04:05,47.4,12.4,47.4,47.4,24.0,1.7,0.7,98.5,0.0,-0.00027652
2024-04-16,04:10,47.6,11.9,47.6,47.6,23.3,1.3,0.5,37.3,0.0,-0.0002528
2024-04-16,04:15,46.8,13.3,46.8,46.8,25.6,1.6,1,307.4,0.0,-0.00023693
2024-04-16,04:20,46.7,14.4,46.7,46.7,26.9,0.9,0.5,260.5,0.0,-0.00020557
2024-04-16,04:25,46.5,15.9,46.5,46.5,29.0,1.1,0.8,254.9,0.0,-0.00019297
2024-04-16,04:30,46.2,15.7,46.2,46.2,29.1,1.3,0.4,245.9,0.0,-0.00018973
2024-04-16,04:35,45.9,14.4,45.9,45.9,27.7,1.1,0.8,165.3,0.0,-0.00019474
2024-04-16,04:40,45.6,14.8,45.6,45.6,28.6,1.4,0.5,206.3,0.0,-0.00019259
2024-04-16,04:45,45,14.5,45.0,45,28.9,2.4,0.8,160.4,0.0,-0.00021711
2024-04-16,04:50,44.7,14.3,44.7,44.7,29.0,2.2,1,181.2,0.0,-0.00021573
2024-04-16,04:55,44.2,14.9,44.2,44.2,30.3,2.8,1.5,230.8,0.0,-0.00018046
2024-04-16,05:00,43.9,14.7,43.9,43.9,30.4,1.6,0.6,259.8,0.0,-0.00019503
2024-04-16,05:05,44,16.5,44.0,44,32.7,1.6,1.2,263.5,0.0,-0.00017677
2024-04-16,05:10,43.6,15.2,43.6,43.6,31.4,1.6,0.4,305.8,0.0,-0.00023565
2024-04-16,05:15,43,15.1,43.0,43,32.0,0,0,0,0.0,-0.00022934
2024-04-16,05:20,42.9,14.2,42.9,42.9,30.9,1.6,0.5,341.2,0.0,-0.00020924
2024-04-16,05:25,43.7,15.1,43.7,43.7,31.1,2.3,1.3,275.8,0.0,-0.0001297
2024-04-16,05:30,43.5,13.7,43.5,43.5,29.6,2.5,1.5,339.7,0.0,-0.00022855
2024-04-16,05:35,43.6,14,43.6,43.6,29.9,2.2,1.1,281.2,0.0,-0.00019027
2024-04-16,05:40,43.5,16.5,43.5,43.5,33.3,2.5,1.2,260.1,0.0,-0.0001806
2024-04-16,05:45,43.3,16.5,43.3,43.3,33.6,2.9,1.8,223.7,0.0,-0.00015806
2024-04-16,05:50,42.9,16.6,42.9,42.9,34.1,1.4,0.7,231.8,0.0,-0.00019983
2024-04-16,05:55,43.3,15.9,43.3,43.3,32.8,2.2,1.2,108.4,0.0,-0.00021854
2024-04-16,06:00,43.6,15.1,43.6,43.6,31.2,1.5,1,348.2,0.0,-0.00021823
2024-04-16,06:05,43.5,16.2,43.5,43.5,32.9,2.3,1.7,305.8,0.0,-0.00020188
2024-04-16,06:10,43.8,14.1,43.8,43.8,29.7,2.4,0.9,292.8,0.0,-0.00017697
2024-04-16,06:15,43.6,13.9,43.6,43.6,29.6,1.6,0.6,357.3,0.0,-0.00021294
2024-04-16,06:20,43.8,13.1,43.8,43.8,28.4,3.6,1.6,338.7,0.0,-0.00014874
2024-04-16,06:25,44.3,14.6,44.3,44.3,29.7,3.8,2.7,303,0.0,0.00001588
2024-04-16,06:30,44.6,13.5,44.6,44.6,28.1,2.9,2,298.7,0.0,0.00023572
2024-04-16,06:35,44.8,13.5,44.8,44.8,27.8,3.6,1.9,281.6,0.0,0.00059583
2024-04-16,06:40,44.7,14.9,44.7,44.7,29.7,1.4,0.5,328.5,0.0,0.00122736
2024-04-16,06:45,43.8,15.2,43.8,43.8,31.1,2,1.4,248.8,0.0,0.00234876
2024-04-16,06:50,43.2,16.1,43.2,43.2,33.2,3.1,2.4,238.7,0.0,0.00376248
2024-04-16,06:55,43,14.5,43.0,43,31.2,3.2,2.5,271.5,0.0,0.005889249
2024-04-16,07:00,43.9,13.2,43.9,43.9,28.4,4.3,3.2,279.8,0.0,0.01890067
2024-04-16,07:05,43.7,12,43.7,43.7,27.1,4.5,2.6,333.7,0.0,0.02587282
2024-04-16,07:10,45,12.8,45.0,45,26.8,3.8,2.4,303.9,0.0,0.01729494
2024-04-16,07:15,45.9,12.1,45.9,45.9,25.1,5,3.1,341.7,0.0,0.03020032
2024-04-16,07:20,47.2,11.3,47.2,47.2,23.1,6.6,4.9,351.4,0.0,0.04233857
2024-04-16,07:25,47.9,12.6,47.9,47.9,23.8,4.7,1.8,324.2,0.0,0.04778507
2024-04-16,07:30,48.4,10.7,48.4,48.4,21.4,5.7,3.7,342.2,0.0,0.05325636
2024-04-16,07:35,48.6,11.2,48.6,48.6,21.8,6.8,5,351.6,0.0,0.0585583
2024-04-16,07:40,48.9,11.1,48.9,48.9,21.5,6.3,4.4,353.7,0.0,0.06387822
2024-04-16,07:45,48.8,11.3,48.8,48.8,21.7,7.3,5.8,346.5,0.0,0.06934319
2024-04-16,07:50,49.3,11.8,49.3,49.3,21.8,3.7,2.1,296.5,0.0,0.07475696
2024-04-16,07:55,49.9,11.7,49.9,49.9,21.1,3.6,1.8,314.2,0.0,0.08034322
2024-04-16,08:00,50.3,12,50.3,50.3,21.1,3.1,1.9,315.9,0.0,0.08590095
2024-04-16,08:05,50.8,12.4,50.8,50.8,21.2,3.7,2.2,296,0.0,0.09138093
2024-04-16,08:10,50.7,12.1,50.7,50.7,21.0,4.2,2.9,271,0.0,0.0969901
2024-04-16,08:15,50.8,13.6,50.8,50.8,22.3,4,2.6,260.4,0.0,0.1027136
2024-04-16,08:20,51.3,12.5,51.3,51.3,20.9,4.1,2.9,268.6,0.0,0.1085597
2024-04-16,08:25,52,13.2,52.0,52,20.9,4,2.8,279.9,0.0,0.1144192
2024-04-16,08:30,52.6,13.7,52.6,52.6,21.0,3.3,2.6,262.1,0.0,0.1202407
2024-04-16,08:35,53.5,13.5,53.5,53.5,20.1,2.5,1.5,218,0.0,0.1262708
2024-04-16,08:40,54.6,13.6,54.6,54.6,19.3,3.7,1.6,240,0.0,0.132137
2024-04-16,08:45,55.4,14.8,55.4,55.4,19.9,4.1,2.4,332.7,0.0,0.1381859
2024-04-16,08:50,56.5,13.8,56.5,56.5,18.3,7,3.7,334.6,0.0,0.1440549
2024-04-16,08:55,57.2,14.9,57.2,57.2,18.7,4.4,2.6,335.4,0.0,0.1499021
2024-04-16,09:00,57.3,14.8,57.3,57.3,18.6,8.2,4,348.2,0.0,0.1557727
2024-04-16,09:05,58,15.4,58.0,58,18.6,6.2,3.8,350.2,0.0,0.1617443
2024-04-16,09:10,59,15.5,59.0,59,18.0,7.3,4.6,347.6,0.0,0.1675317
2024-04-16,09:15,59.9,15.6,59.9,59.9,17.5,5.9,3.2,335.2,0.0,0.1730332
2024-04-16,09:20,60.6,16.6,60.6,60.6,17.8,6.4,2.9,322.3,0.0,0.1789622
2024-04-16,09:25,60.8,16.3,60.8,60.8,17.5,7.1,2.9,316,0.0,0.1846414
2024-04-16,09:30,60.4,16.4,60.4,60.4,17.8,8.3,5.9,352.4,0.0,0.1901796
2024-04-16,09:35,61.1,22.6,61.1,61.1,22.6,8.2,5.6,356,0.0,0.1954693
2024-04-16,09:40,61.7,18.5,61.7,61.7,18.6,6.3,3.8,341.4,0.0,0.2009132
2024-04-16,09:45,62.1,17.4,62.1,62.1,17.5,10.1,6.4,345,0.0,0.2063663
2024-04-16,09:50,62.3,17.7,62.3,62.3,17.6,9.8,5.2,343.5,0.0,0.2117987
2024-04-16,09:55,62.9,17.5,62.9,62.9,17.1,11.7,7.2,336.2,0.0,0.2167454
2024-04-16,10:00,62.5,19.5,62.5,62.5,18.8,9.1,6.3,41,0.0,0.2222017
2024-04-16,10:05,63,18.9,63.0,63,18.1,8.3,5.2,18.4,0.0,0.2276624
2024-04-16,10:10,63.4,18,63.4,63.4,17.1,9.8,4.6,19.1,0.0,0.2322684
2024-04-16,10:15,64,21.5,64.0,64,19.5,11.7,5.1,21.1,0.0,0.2371794
2024-04-16,10:20,63.4,18.6,63.4,63.4,17.6,12.1,6.1,5.5,0.0,0.2421032
2024-04-16,10:25,64.3,18.1,64.3,64.3,16.7,11.5,4.7,345.4,0.0,0.2464393
2024-04-16,10:30,64.5,17.4,64.5,64.5,16.1,11.9,7.4,22.3,0.0,0.2506855
2024-04-16,10:35,64.4,21.5,64.4,64.4,19.2,10.9,8.5,40.0,0.0,0.2556036
2024-04-16,10:40,64.3,18,64.3,64.3,16.6,12.2,8.4,26.3,0.0,0.2600315
2024-04-16,10:45,64.6,17.7,64.6,64.6,16.2,11.1,6.4,34.1,0.0,0.2641769
2024-04-16,10:50,64.9,18.2,64.9,64.9,16.4,10.2,6.2,56.8,0.0,0.2686583
2024-04-16,10:55,64.7,16.6,64.7,64.7,15.5,13.4,8.2,27.9,0.0,0.2730039
2024-04-16,11:00,65.2,18.9,65.2,65.2,16.7,10.4,5.7,2.5,0.0,0.2764872
2024-04-16,11:05,65.6,16.8,65.6,65.6,15.1,8.6,4.9,29.3,0.0,0.2808462
2024-04-16,11:10,65.5,23.4,65.5,65.5,20.0,10.3,6.2,62.0,0.0,0.2845435
2024-04-16,11:15,65.3,17.7,65.3,65.3,15.9,11.5,6.7,36.4,0.0,0.2878719
2024-04-16,11:20,66.2,17.2,66.2,66.2,15,10.9,5.8,15.2,0.0,0.2910038
2024-04-16,11:25,66.6,18,66.6,66.6,15.4,8.6,5.2,6.0,0.0,0.2946389
2024-04-16,11:30,66.9,16.9,66.9,66.9,14.4,7.6,2.5,335.9,0.0,0.2974879
2024-04-16,11:35,66.8,20.4,66.8,66.8,16.9,8.3,4.4,7.0,0.0,0.3001248
2024-04-16,11:40,66.9,15.7,66.9,66.9,13.8,9.6,6.1,13.8,0.0,0.3034144
2024-04-16,11:45,67.3,16.1,67.3,67.3,13.8,9.7,4.1,355.1,0.0,0.3060646
2024-04-16,11:50,67.1,18.6,67.1,67.1,15.5,9.8,4.9,8.5,0.0,0.3083942
2024-04-16,11:55,68,17.2,68.0,68,14.1,4.1,1.5,333.8,0.0,0.3113486
2024-04-16,12:00,68.9,17.1,68.9,68.9,13.6,8.6,5.8,349.5,0.0,0.3132265
2024-04-16,12:05,69.6,19.6,69.6,69.6,14.8,7.1,4.2,320,0.0,0.3150944
2024-04-16,12:10,68.1,15.3,68.1,68.1,12.9,7.7,3.2,50.4,0.0,0.3172794
2024-04-16,12:15,68.8,20,68.8,68.8,15.5,5.3,2.4,233.1,0.0,0.3193423
2024-04-16,12:20,68.6,24.4,68.6,68.6,18.8,8.5,4.7,31.9,0.0,0.321093
2024-04-16,12:25,69.6,15.4,69.6,69.6,12.4,8,3.7,339.6,0.0,0.3220703
2024-04-16,12:30,69.4,13.7,69.4,69.4,11.6,6.5,4,259.9,0.0,0.3232967
2024-04-16,12:35,70.3,14.3,70.3,70.3,11.5,12.2,4.5,314,0.0,0.3254638
2024-04-16,12:40,70.1,15.7,70.1,70.1,12.3,9.8,4.4,329.2,0.0,0.3263664
2024-04-16,12:45,69.4,18.3,69.4,69.4,14.2,8.4,4.2,0.2,0.0,0.3267569
2024-04-16,12:50,69.3,15.5,69.3,69.3,12.5,5.2,2,34.2,0.0,0.3272195
2024-04-16,12:55,71,14.4,71.0,71,11.3,8.2,3.7,300.2,0.0,0.3277386
2024-04-16,13:00,71.5,11.6,71.5,71.5,9.8,7.4,3.5,293.2,0.0,0.3284772
2024-04-16,13:05,70.2,17.7,70.2,70.2,13.4,8.7,4.7,15.3,0.0,0.3287972
2024-04-16,13:10,70.6,14.8,70.6,70.6,11.6,11.6,5.9,35.1,0.0,0.3277569
2024-04-16,13:15,71.4,13.7,71.4,71.4,10.8,7.6,4.1,306.5,0.0,0.3298008
2024-04-16,13:20,71.1,13.4,71.1,71.1,10.8,7.6,5,259.5,0.0,0.3408989
2024-04-16,13:25,71.1,15,71.1,71.1,11.6,5.7,3.7,202,0.0,0.2684961
2024-04-16,13:30,71.5,16.9,71.5,71.5,12.4,7.6,4.1,281.6,0.0,0.2670791
2024-04-16,13:35,73.1,14.4,73.1,73.1,10.5,7,2.2,301.6,0.0,0.3324362
2024-04-16,13:40,72.3,14.5,72.3,72.3,10.9,9.2,4.5,348.3,0.0,0.2249295
2024-04-16,13:45,71.7,13.6,71.7,71.7,10.7,8.4,4.3,352.3,0.0,0.3072131
2024-04-16,13:50,72.1,12.7,72.1,72.1,10.1,7.1,3.9,294.5,0.0,0.3400522
2024-04-16,13:55,72.7,13.4,72.7,72.7,10.2,8.4,4,4.1,0.0,0.3327734
2024-04-16,14:00,72.9,13.4,72.9,72.9,10.1,7.4,4.9,290,0.0,0.3242666
2024-04-16,14:05,72.8,13.3,72.8,72.8,10.2,7,3.1,295.4,0.0,0.318334
2024-04-16,14:10,72.9,13.5,72.9,72.9,10.2,5,1.7,145.7,0.0,0.3152222
2024-04-16,14:15,74.2,19.4,74.2,74.2,12.6,4.5,2.1,161.2,0.0,0.3134372
2024-04-16,14:20,73.7,12.3,73.7,73.7,9.4,9.1,3.7,239.5,0.0,0.3114858
2024-04-16,14:25,73.7,10.3,73.7,73.7,8.6,6.3,4.2,254.9,0.0,0.3091906
2024-04-16,14:30,74.1,11.3,74.1,74.1,8.9,5.5,2.7,238.7,0.0,0.3060058
2024-04-16,14:35,74.8,12,74.8,74.8,9.0,6.3,3.4,327.1,0.0,0.3032226
2024-04-16,14:40,75,11.8,75.0,75,8.8,11.3,4.9,326.4,0.0,0.3003992
2024-04-16,14:45,74.4,14.9,74.4,74.4,10.3,7.3,3.7,8.5,0.0,0.2971199
2024-04-16,14:50,75.3,11.7,75.3,75.3,8.7,5.9,2.7,321.2,0.0,0.2940385
2024-04-16,14:55,76,16.9,76.0,76,10.6,4.6,2.4,108,0.0,0.2908106
2024-04-16,15:00,75.7,9.8,75.7,75.7,7.9,6.9,3.8,25.0,0.0,0.2873311
2024-04-16,15:05,75.5,11,75.5,75.5,8.4,10.1,6.8,355.2,0.0,0.283907
2024-04-16,15:10,76.2,10.7,76.2,76.2,8.1,10.7,5.8,302.7,0.0,0.2808008
2024-04-16,15:15,76.2,9,76.2,76.2,7.5,8.2,5.3,341.5,0.0,0.2774234
2024-04-16,15:20,75.9,9.3,75.9,75.9,7.7,6.4,3.3,351.8,0.0,0.2736416
2024-04-16,15:25,76.3,12.5,76.3,76.3,8.7,9.7,4.8,346.5,0.0,0.2689066
2024-04-16,15:30,76,10.3,76.0,76,8.0,10.8,6.5,352.5,0.0,0.2643238
2024-04-16,15:35,76.8,11.2,76.8,76.8,8.1,8.5,4.5,328.2,0.0,0.2604046
2024-04-16,15:40,76.8,9.8,76.8,76.8,7.6,5.5,3.1,338.8,0.0,0.2559813
2024-04-16,15:45,76.8,13.8,76.8,76.8,9.1,5.9,2.5,310.6,0.0,0.2512754
2024-04-16,15:50,77.2,10.7,77.2,77.2,7.8,9.8,4.7,31.2,0.0,0.2469624
2024-04-16,15:55,76.6,11.2,76.6,76.6,8.1,7.2,3.4,358.2,0.0,0.2420363
2024-04-16,16:00,78.1,10.7,78.1,78.1,7.6,6.1,3.8,193.2,0.0,0.2387163
2024-04-16,16:05,78.6,10.2,78.6,78.6,7.3,10.8,3.6,242,0.0,0.2343148
2024-04-16,16:10,77.2,8.7,77.2,77.2,7.1,9.3,4.6,232.6,0.0,0.2291212
2024-04-16,16:15,77.1,11.4,77.1,77.1,8.1,6.6,4.1,284.1,0.0,0.2242696
2024-04-16,16:20,77.8,11.3,77.8,77.8,7.8,9.8,4.6,283.3,0.0,0.2186079
2024-04-16,16:25,77.6,7.7,77.6,77.6,6.7,9.1,4.9,226.6,0.0,0.2139716
2024-04-16,16:30,78.3,8.5,78.3,78.3,6.8,7.4,4.5,240.4,0.0,0.2105487
2024-04-16,16:35,77.8,6.8,77.8,77.8,6.4,11.2,7.5,289.4,0.0,0.2050834
2024-04-16,16:40,78.5,5.9,78.5,78.5,6.0,12.3,5.3,295.2,0.0,0.1985212
2024-04-16,16:45,78,6.4,78.0,78,6.3,8.8,4.1,262.1,0.0,0.1937128
2024-04-16,16:50,78.6,5.8,78.6,78.6,6.0,10,5.3,286.2,0.0,0.1896479
2024-04-16,16:55,77.8,15.1,77.8,77.8,9.3,6.9,3.3,358.1,0.0,0.1844953
2024-04-16,17:00,78.3,6.6,78.3,78.3,6.2,9,3.5,281.9,0.0,0.1716618
2024-04-16,17:05,78.3,11.3,78.3,78.3,7.7,10.8,7.5,271.5,0.0,0.1759013
2024-04-16,17:10,78.4,6.7,78.4,78.4,6.3,9.8,6.3,258.7,0.0,0.1677507
2024-04-16,17:15,78.3,5.7,78.3,78.3,6.0,7.3,4.5,264.3,0.0,0.1617335
2024-04-16,17:20,78.3,3.8,78.3,78.3,5.5,10,6.9,285.7,0.0,0.1551877
2024-04-16,17:25,78.4,3.6,78.4,78.4,5.4,11.3,7.4,269.2,0.0,0.1492577
2024-04-16,17:30,78.3,4.6,78.3,78.3,5.7,10.2,5.9,257.8,0.0,0.1435565
2024-04-16,17:35,78.2,4.8,78.2,78.2,5.8,9.4,5.6,253.7,0.0,0.137913
2024-04-16,17:40,78.8,4.4,78.8,78.8,5.5,8.3,4.9,250.5,0.0,0.1328432
2024-04-16,17:45,78.7,4.4,78.7,78.7,5.6,8.8,5.6,275.3,0.0,0.1263509
2024-04-16,17:50,78.7,6.5,78.7,78.7,6.1,8.5,4.3,247.5,0.0,0.1194793
2024-04-16,17:55,78.2,5.2,78.2,78.2,5.9,8.5,5,253.3,0.0,0.112603
2024-04-16,18:00,78.5,5.3,78.5,78.5,5.8,6,3.2,271.4,0.0,0.1075474
2024-04-16,18:05,77.9,5.5,77.9,77.9,6.0,10.4,5.5,272.1,0.0,0.1020489
2024-04-16,18:10,78.3,5.9,78.3,78.3,6.1,6.7,4,264.4,0.0,0.09647311
2024-04-16,18:15,78,6.4,78.0,78,6.3,8,4.9,255.9,0.0,0.09131614
2024-04-16,18:20,78,5.5,78.0,78,6.0,9.3,5,287.9,0.0,0.08617742
2024-04-16,18:25,78.1,5.7,78.1,78.1,6.0,6.4,3.6,280.7,0.0,0.08148981
2024-04-16,18:30,78.2,5.9,78.2,78.2,6.1,7.1,4.1,275.1,0.0,0.07723305
2024-04-16,18:35,77.7,6.1,77.7,77.7,6.2,7.9,5.2,274.1,0.0,0.07134286
2024-04-16,18:40,77.7,8.2,77.7,77.7,6.8,9.5,4.8,262.3,0.0,0.06409022
2024-04-16,18:45,77.8,6.5,77.8,77.8,6.3,5.8,4,246.2,0.0,0.05880736
2024-04-16,18:50,77.3,5.4,77.3,77.3,6.1,7.5,5.6,240.1,0.0,0.05441266
2024-04-16,18:55,77.1,6.6,77.1,77.1,6.5,7.1,4.6,250.3,0.0,0.05052689
2024-04-16,19:00,76.9,6.7,76.9,76.9,6.6,7.2,4.8,241.4,0.0,0.04593995
2024-04-16,19:05,76.9,4.2,76.9,76.9,5.9,6.5,3.9,226.8,0.0,0.04107259
2024-04-16,19:10,76.8,4.3,76.8,76.8,5.9,4.7,3,235.3,0.0,0.03664999
2024-04-16,19:15,76.2,4.2,76.2,76.2,6.0,3,2.1,242.8,0.0,0.01999716
2024-04-16,19:20,75.8,6.5,75.8,75.8,6.8,2.2,1.6,243.7,0.0,0.01166376
2024-04-16,19:25,75.1,6.2,75.1,75.1,6.8,3.3,2,254.6,0.0,0.008522559
2024-04-16,19:30,74.8,6.5,74.8,74.8,7.0,1.9,1.1,249.8,0.0,0.00612241
2024-04-16,19:35,74.2,7.4,74.2,74.2,7.4,2.9,1.3,227.3,0.0,0.00499855
2024-04-16,19:40,73.7,10.7,73.7,73.7,8.8,1.3,0.4,228.4,0.0,0.00355257
2024-04-16,19:45,72.6,9.7,72.6,72.6,8.7,0.8,0.3,213.3,0.0,0.00193825
2024-04-16,19:50,71.4,12.2,71.4,71.4,10.1,0.5,0.2,213.4,0.0,0.00089795
2024-04-16,19:55,70.3,11.4,70.3,70.3,10.1,1,0.4,226,0.0,-0.00001696
2024-04-16,20:00,69.4,13.2,69.4,69.4,11.3,0.5,0.1,221.5,0.0,-0.00025902
2024-04-16,20:05,68.6,10.7,68.6,68.6,10.4,0.8,0.3,221.5,0.0,-0.00027771
2024-04-16,20:10,68.5,12,68.5,68.5,11.1,1.4,1.1,236.4,0.0,-0.00024392
2024-04-16,20:15,68.1,13,68.1,68.1,11.7,1.3,1,239.1,0.0,-0.00027275
2024-04-16,20:20,67.6,13.5,67.6,67.6,12.2,1.4,0.9,238.9,0.0,-0.00027868
2024-04-16,20:25,66.9,13.2,66.9,66.9,12.3,1.7,1,238.5,0.0,-0.0002839
2024-04-16,20:30,66.7,13.2,66.7,66.7,12.5,1.7,1.4,259.3,0.0,-0.00025362
2024-04-16,20:35,66.5,15.2,66.5,66.5,13.6,1.7,1.2,267.3,0.0,-0.00026691
2024-04-16,20:40,66.4,15.4,66.4,66.4,13.8,2.1,1.4,265,0.0,-0.00024597
2024-04-16,20:45,66.1,13.6,66.1,66.1,12.9,1.5,1.3,259.5,0.0,-0.00026585
2024-04-16,20:50,65.8,15.4,65.8,65.8,14.1,1.4,0.9,255.9,0.0,-0.00027111
2024-04-16,20:55,65.3,13.9,65.3,65.3,13.5,1.2,0.9,247.8,0.0,-0.00026673
2024-04-16,21:00,64.6,15.1,64.6,64.6,14.5,0.7,0.2,239.1,0.0,-0.00028118
2024-04-16,21:05,63.9,13.8,63.9,63.9,14.0,0.6,0.3,236.7,0.0,-0.00025783
2024-04-16,21:10,63.5,13.9,63.5,63.5,14.3,1,0.2,252.1,0.0,-0.00027607
2024-04-16,21:15,64.2,11.9,64.2,64.2,12.8,3.3,1.5,258.8,0.0,-0.00017208
2024-04-16,21:20,64.7,11.1,64.7,64.7,12.1,2.3,1.6,245.4,0.0,-0.00018398
2024-04-16,21:25,64.9,11,64.9,64.9,12.0,1.9,0.9,243,0.0,-0.0002247
2024-04-16,21:30,64.4,11.4,64.4,64.4,12.4,1,0.6,219,0.0,-0.00025241
2024-04-16,21:35,64.3,10.5,64.3,64.3,12,1.8,1.1,222.7,0.0,-0.0002116
2024-04-16,21:40,64,11.3,64.0,64,12.5,1.9,1.3,213.4,0.0,-0.00020873
2024-04-16,21:45,63.7,11.6,63.7,63.7,12.9,2.4,1.5,221.4,0.0,-0.00021975
2024-04-16,21:50,63.6,12.2,63.6,63.6,13.3,2.1,1,232,0.0,-0.00023704
2024-04-16,21:55,62.7,11.9,62.7,62.7,13.5,0,0,0,0.0,-0.0003165
2024-04-16,22:00,61.5,11,61.5,61.5,13.5,0,0,0,0.0,-0.00031167
2024-04-16,22:05,61.1,10.8,61.1,61.1,13.6,0.6,0.1,210.4,0.0,-0.00023848
2024-04-16,22:10,60.7,8.6,60.7,60.7,12.5,0.5,0,282,0.0,-0.00026849
2024-04-16,22:15,62,7.7,62.0,62,11.5,1.5,0.8,87.1,0.0,-0.00029719
2024-04-16,22:20,62.2,6.8,62.2,62.2,10.9,1.1,0.5,60.8,0.0,-0.00029942
2024-04-16,22:25,62.4,7.1,62.4,62.4,11.0,1.1,0.3,359.2,0.0,-0.00029371
2024-04-16,22:30,62.2,8.2,62.2,62.2,11.6,1.4,0.4,341.8,0.0,-0.00030745
2024-04-16,22:35,61.6,7.7,61.6,61.6,11.6,1.4,0.8,350.3,0.0,-0.00033418
2024-04-16,22:40,61.1,7.1,61.1,61.1,11.5,1.6,0.5,334.7,0.0,-0.00032144
2024-04-16,22:45,60.8,7.2,60.8,60.8,11.7,1.6,0.2,275.7,0.0,-0.00025339
2024-04-16,22:50,60.9,9.7,60.9,60.9,13.1,0.8,0.1,224,0.0,-0.00022685
2024-04-16,22:55,60.2,11,60.2,60.2,14.2,0,0,0,0.0,-0.0002928
2024-04-16,23:00,59.4,10.8,59.4,59.4,14.4,1.3,0.6,198.2,0.0,-0.00023051
2024-04-16,23:05,58.6,9,58.6,58.6,13.7,1.3,0.9,188.8,0.0,-0.00024704
2024-04-16,23:10,58.3,10.1,58.3,58.3,14.6,0.6,0.1,185.1,0.0,-0.00025765
2024-04-16,23:15,57.8,9.6,57.8,57.8,14.5,2.2,0.6,75.8,0.0,-0.00028462
2024-04-16,23:20,58.1,10.3,58.1,58.1,14.8,2,0.7,108.8,0.0,-0.00025875
2024-04-16,23:25,57.8,8.5,57.8,57.8,13.8,2.8,1.2,163.8,0.0,-0.0002496
2024-04-16,23:30,59.1,9.6,59.1,59.1,13.9,3.7,1.8,190.4,0.0,-0.00017942
2024-04-16,23:35,58.8,10,58.8,58.8,14.2,2.4,0.8,143.2,0.0,-0.00024877
2024-04-16,23:40,58.4,11,58.4,58.4,15.1,1.3,0.5,104.3,0.0,-0.00029922
2024-04-16,23:45,57.9,10.5,57.9,57.9,15.1,1.4,0.4,95.1,0.0,-0.00030194
2024-04-16,23:50,57.7,11.9,57.7,57.7,16.1,1.4,0.7,173.8,0.0,-0.00022797
2024-04-16,23:55,57.1,12.3,57.1,57.1,16.7,1.5,0.9,195.6,0.0,-0.00022159
2024-04-17,00:00,56.6,12.4,56.6,56.6,17.1,1.1,0.2,231.4,0.0,-0.00025823
2024-04-17,00:05,55.9,14.1,55.9,55.9,18.9,1.4,0.3,226.3,0.0,-0.00027192
2024-04-17,00:10,55,14.2,55.0,55,19.6,1.4,0.3,224.7,0.0,-0.00026044
2024-04-17,00:15,54.7,14,54.7,54.7,19.7,0,0,0,0.0,-0.00024605
2024-04-17,00:20,54.6,14.4,54.6,54.6,20.1,1.6,0.6,205.2,0.0,-0.00017865
2024-04-17,00:25,54.2,13.6,54.2,54.2,19.7,0,0,0,0.0,-0.00026043
2024-04-17,00:30,53.7,13.9,53.7,53.7,20.3,0,0,0,0.0,-0.0002379
2024-04-17,00:35,53.5,13.7,53.5,53.5,20.3,0,0,0,0.0,-0.00024453
2024-04-17,00:40,53.6,13.9,53.6,53.6,20.4,0.9,0.4,203.8,0.0,-0.00016252
2024-04-17,00:45,53.8,13.8,53.8,53.8,20.2,1.7,0.8,220.2,0.0,-0.00015184
2024-04-17,00:50,53.4,13.4,53.4,53.4,20.1,0,0,0,0.0,-0.00023725
2024-04-17,00:55,52.8,14.2,52.8,52.8,21.2,1.3,0.5,198.6,0.0,-0.00020688
2024-04-17,01:00,52.6,13.8,52.6,52.6,21.1,1.4,0.6,202,0.0,-0.00018362
2024-04-17,01:05,52.4,14.9,52.4,52.4,22.3,1.2,0.9,167.7,0.0,-0.00020312
2024-04-17,01:10,52.4,14.6,52.4,52.4,22.0,2.4,1.3,184.5,0.0,-0.00017603
2024-04-17,01:15,51.8,13.5,51.8,51.8,21.4,0.7,0.1,204.1,0.0,-0.0002412
2024-04-17,01:20,51.7,14,51.7,51.7,22.0,2.1,0.7,128,0.0,-0.00022981
2024-04-17,01:25,51.6,14.2,51.6,51.6,22.2,2.1,0.7,174.8,0.0,-0.00021113
2024-04-17,01:30,51.4,13.8,51.4,51.4,22.0,1.3,0.8,142.3,0.0,-0.00020278
2024-04-17,01:35,51.8,12.5,51.8,51.8,20.4,2.8,1.5,60.2,0.0,-0.00023897
2024-04-17,01:40,52,13.8,52.0,52,21.6,3,1.6,177.9,0.0,-0.00019168
2024-04-17,01:45,51.7,13.2,51.7,51.7,21.2,3.2,1.6,171.2,0.0,-0.00018725
2024-04-17,01:50,50.9,14.5,50.9,50.9,23.1,2.6,1.8,176,0.0,-0.00021253
2024-04-17,01:55,50.6,15.1,50.6,50.6,24.0,3,1.7,243.6,0.0,-0.00022073
2024-04-17,02:00,50.7,15.2,50.7,50.7,24.0,2.8,1.7,211.5,0.0,-0.00017592
2024-04-17,02:05,50.7,13.6,50.7,50.7,22.3,2.6,1.8,188.9,0.0,-0.00016905
2024-04-17,02:10,50.8,13.5,50.8,50.8,22.2,2.6,1,142.4,0.0,-0.00022374
2024-04-17,02:15,50.7,14,50.7,50.7,22.7,1.5,1,136.3,0.0,-0.0002182
2024-04-17,02:20,50,14.8,50.0,50,24.2,1.6,0.5,233,0.0,-0.00021631
2024-04-17,02:25,49.4,14.8,49.4,49.4,24.8,1.6,0.8,187.2,0.0,-0.00020758
2024-04-17,02:30,49,14.3,49.0,49,24.5,2.7,1.6,196.8,0.0,-0.00018302
2024-04-17,02:35,49,15.4,49.0,49,25.9,2.4,1,213.6,0.0,-0.00017903
2024-04-17,02:40,48.8,15.7,48.8,48.8,26.3,2.2,1.6,309.7,0.0,-0.00021319
2024-04-17,02:45,47.9,16.7,47.9,47.9,28.5,2.2,0.7,313.6,0.0,-0.00024498
2024-04-17,02:50,47.9,16.3,47.9,47.9,28,1.2,0.3,255.9,0.0,-0.00022174
2024-04-17,02:55,47.9,17.2,47.9,47.9,29.1,1.8,1,229.8,0.0,-0.00015237
2024-04-17,03:00,47.9,16.5,47.9,47.9,28.2,1.8,0.4,215.1,0.0,-0.00016787
2024-04-17,03:05,47.9,14.8,47.9,47.9,26.2,1.8,1,185.1,0.0,-0.00013657
2024-04-17,03:10,47.8,16.1,47.8,47.8,27.9,1.9,0.8,269.5,0.0,-0.00017952
2024-04-17,03:15,48,16.8,48.0,48,28.5,1.4,1,261.7,0.0,-0.00015754
2024-04-17,03:20,47.4,17.4,47.4,47.4,29.9,1,0.1,41.5,0.0,-0.00020876
2024-04-17,03:25,47.3,16.9,47.3,47.3,29.3,0.8,0.2,350.6,0.0,-0.00018842
2024-04-17,03:30,47.3,17.7,47.3,47.3,30.4,1.6,0.4,267.6,0.0,-0.00014655
2024-04-17,03:35,47.6,17.8,47.6,47.6,30.2,2.2,1.8,236.5,0.0,-0.00009831999
2024-04-17,03:40,47.4,17.5,47.4,47.4,30.0,2.1,0.8,255.4,0.0,-0.00016346
2024-04-17,03:45,47.3,14.7,47.3,47.3,26.7,1.6,0.7,22.5,0.0,-0.00021196
2024-04-17,03:50,47.2,15.5,47.2,47.2,27.7,0,0,0,0.0,-0.00022341
2024-04-17,03:55,47.3,15.2,47.3,47.3,27.3,0.9,0.2,212.4,0.0,-0.00014611
2024-04-17,04:00,47.4,16.8,47.4,47.4,29.2,1.5,0.5,223.7,0.0,-0.00014306
2024-04-17,04:05,47.3,18,47.3,47.3,30.8,2.4,1.7,253.8,0.0,-0.00012734
2024-04-17,04:10,46.9,18.8,46.9,46.9,32.3,1.7,0.8,261.1,0.0,-0.00017677
2024-04-17,04:15,46.8,18.5,46.8,46.8,32.1,1.9,1.2,247,0.0,-0.00016179
2024-04-17,04:20,46.4,17.9,46.4,46.4,31.7,2.5,1.2,254.3,0.0,-0.00017847
2024-04-17,04:25,46.5,19.4,46.5,46.5,33.6,3.6,2.8,256.2,0.0,-0.0001231